Notices

What's New in latest Release from April 7th, 2021:

- Updated Glossary, including Speed of Maximum Gust, and Total Hourly Precipitation

- Updated national and regional climate services offices contacts and prices information

- Addition of station inventory lists for 1981-2010, 1971-2000, and 1961-1990 Normals.

If you haven't already, please take our survey and provide feedback about our website: https://eccc.sondage-survey.ca/f/LanguageSelection.aspx?s=442ca660-fcf1-47c0-95a9-59707d6fd709

Hourly Data Report for July 10, 2018

TORONTO CITY
ONTARIO
Current Station Operator: ECCC - MSC

43°40'00.000" N
79°24'00.000" W
112.50 m
6158355
71508
XTO

Download Data

Hourly Data (July 2018)
Hourly Data Report for July 10, 2018
TIME
LST
Temp Definition
°C
Dew Point Definition
°C
Rel Hum Definition
%
Precip. Amount Definition
mm

Wind Dir Definition
10's deg

Wind Spd Definition
km/h
Visibility Definition
km
Stn Press Definition
kPa
Hmdx Definition


Wind Chill Definition


Weather Definition


00:00 23.8 15.9 61 0.0 LegendMM LegendMM   100.20 28   LegendNANA
01:00 23.0 16.1 65 0.0 LegendMM LegendMM   100.15 28   LegendNANA
02:00 24.0 15.6 60 0.0 LegendMM LegendMM   100.11 28   LegendNANA
03:00 23.2 15.2 61 0.0 LegendMM LegendMM   100.09 27   LegendNANA
04:00 23.9 14.8 57 0.0 LegendMM LegendMM   100.09 28   LegendNANA
05:00 23.5 14.8 58 0.0 LegendMM LegendMM   100.11 27   LegendNANA
06:00 23.8 14.7 56 0.0 LegendMM LegendMM   100.13 28   LegendNANA
07:00 23.9 14.4 55 0.0 LegendMM LegendMM   100.16 28   LegendNANA
08:00 24.8 13.1 48 0.0 LegendMM LegendMM   100.17 28   LegendNANA
09:00 27.1 12.9 41 0.0 LegendMM LegendMM   100.16 30   LegendNANA
10:00 27.8 10.3 34 0.0 LegendMM LegendMM   100.14 29   LegendNANA
11:00 28.7 6.9 25 0.0 LegendMM LegendMM   100.14 29   LegendNANA
12:00 29.7 4.0 19 0.0 LegendMM LegendMM   100.16 29   LegendNANA
13:00 30.0 6.7 23 0.0 LegendMM LegendMM   100.14 30   LegendNANA
14:00 29.8 8.6 27 0.0 LegendMM LegendMM   100.13 30   LegendNANA
15:00 29.6 6.3 23 0.0 LegendMM LegendMM   100.11 29   LegendNANA
16:00 29.0 10.3 31 0.0 LegendMM LegendMM   100.08 30   LegendNANA
17:00 27.5 9.3 32 0.0 LegendMM LegendMM   100.09 28   LegendNANA
18:00 26.1 8.6 33 0.0 LegendMM LegendMM   100.12 27   LegendNANA
19:00 25.1 9.3 37 0.0 LegendMM LegendMM   100.19 26   LegendNANA
20:00 23.9 9.5 40 0.0 LegendMM LegendMM   100.23 25   LegendNANA
21:00 22.9 9.7 43 0.0 LegendMM LegendMM   100.28     LegendNANA
22:00 22.1 10.2 47 0.0 LegendMM LegendMM   100.33     LegendNANA
23:00 21.5 10.5 49 0.0 LegendMM LegendMM   100.36     LegendNANA

Notes on Data Quality.

Legend

  • E = Estimated
  • M = Missing
  • NA = Not Available*
  • [empty] = Indicates an unobserved value
Date modified: